Change the Weather History Date:

Tuesday, October 1, 2013

  Actual Average Record
Temperature  
Mean Temperature 72 °F 61 °F  
Max Temperature 84 °F 72 °F 93 °F (1897)
Min Temperature 59 °F 50 °F 30 °F (2003)
Degree Days  
Heating Degree Days 0 6  
Month to date heating degree days 0 6  
Since 1 July heating degree days 52 77  
Cooling Degree Days 7 2  
Month to date cooling degree days 7 2  
Year to date cooling degree days 1089 1184  
Growing Degree Days 20 (Base 50)    
Moisture  
Dew Point 62 °F    
Average Humidity 73    
Maximum Humidity 100    
Minimum Humidity 46    
Precipitation  
Precipitation 0.00 in 0.12 in 0.67 in (1962)
Month to date precipitation 0.00 0.12  
Year to date precipitation 28.26 30.89  
Sea Level Pressure  
Sea Level Pressure 29.93 in    
Wind  
Wind Speed 9 mph (SSW)    
Max Wind Speed 18 mph    
Max Gust Speed 23 mph    
Visibility 9 miles    
Events      
T = Trace of Precipitation, MM = Missing Value Source: NWS Daily Summary

Daily Weather History Graph

Daily Weather History Graph

Search for Another Location

Airport or City:

Trip Planner

Search our weather history database for the weather conditions in past years. The results will help you decide how hot, cold, wet, or windy it might be!

Date:

Astronomy

Oct. 01, 2013 Rise Set
Actual Time 7:01 AM CDT 6:46 PM CDT
Civil Twilight 6:33 AM CDT 7:13 PM CDT
Nautical Twilight 6:02 AM CDT 7:45 PM CDT
Astronomical Twilight 5:30 AM CDT 8:17 PM CDT
Moon 3:34 AM CDT 4:50 PM CDT
Length of Visible Light 12h 39m
Length of Day
11h 44m
Waning Crescent, 12% of the Moon is Illuminated
Oct 1
Waning Crescent
Oct 4
New
Oct 11
First Quarter
Oct 18
Full
Oct 26
Last Quarter

Hourly Weather History & Observations

Time (CDT) Temp. Heat Index Dew Point Humidity Pressure Visibility Wind Dir Wind Speed Gust Speed Precip Events Conditions
12:53 AM 61.0 °F - 57.9 °F 90% 29.87 in 10.0 mi SSW 5.8 mph - N/A   Clear
1:53 AM 60.1 °F - 57.9 °F 93% 29.87 in 10.0 mi South 8.1 mph - N/A   Clear
2:53 AM 59.0 °F - 57.0 °F 93% 29.88 in 10.0 mi South 6.9 mph - N/A   Clear
3:53 AM 60.1 °F - 57.9 °F 93% 29.88 in 10.0 mi South 6.9 mph - N/A   Clear
4:53 AM 60.1 °F - 59.0 °F 96% 29.89 in 10.0 mi South 8.1 mph - N/A   Clear
5:53 AM 60.1 °F - 59.0 °F 96% 29.91 in 9.0 mi South 6.9 mph - N/A   Partly Cloudy
6:08 AM 60.8 °F - 60.8 °F 100% 29.92 in 9.0 mi South 8.1 mph - N/A   Mostly Cloudy
6:31 AM 60.8 °F - 60.8 °F 100% 29.92 in 8.0 mi South 8.1 mph - N/A   Overcast
6:53 AM 61.0 °F - 61.0 °F 100% 29.93 in 6.0 mi South 10.4 mph - N/A   Overcast
7:53 AM 63.0 °F - 62.1 °F 97% 29.95 in 5.0 mi SSW 4.6 mph - N/A   Overcast
8:53 AM 64.9 °F - 64.0 °F 97% 29.95 in 6.0 mi SSW 12.7 mph - N/A   Overcast
9:53 AM 69.1 °F - 64.9 °F 87% 29.95 in 9.0 mi SSW 12.7 mph - N/A   Mostly Cloudy
10:13 AM 71.6 °F - 64.4 °F 78% 29.96 in 10.0 mi SSW 12.7 mph - N/A   Mostly Cloudy
10:27 AM 71.6 °F - 64.4 °F 78% 29.96 in 10.0 mi SSW 12.7 mph - N/A   Scattered Clouds
10:53 AM 73.0 °F - 64.9 °F 76% 29.95 in 10.0 mi SW 15.0 mph 21.9 mph N/A   Partly Cloudy
11:26 AM 73.4 °F - 64.4 °F 73% 29.96 in 10.0 mi SW 17.3 mph 23.0 mph N/A   Mostly Cloudy
11:53 AM 73.0 °F - 64.9 °F 76% 29.95 in 9.0 mi SSW 12.7 mph 20.7 mph N/A   Overcast
12:36 PM 75.2 °F - 66.2 °F 73% 29.95 in 10.0 mi SW 12.7 mph - N/A   Mostly Cloudy
12:53 PM 77.0 °F - 66.0 °F 69% 29.94 in 10.0 mi SW 15.0 mph 20.7 mph N/A   Scattered Clouds
1:53 PM 80.1 °F 81.7 °F 64.0 °F 58% 29.92 in 10.0 mi SSW 13.8 mph - N/A   Clear
2:53 PM 82.9 °F 83.7 °F 62.1 °F 49% 29.91 in 10.0 mi SSW 15.0 mph 19.6 mph N/A   Clear
3:53 PM 82.9 °F 83.7 °F 62.1 °F 49% 29.90 in 8.0 mi SW 13.8 mph 21.9 mph N/A   Clear
4:53 PM 82.9 °F 83.3 °F 61.0 °F 47% 29.90 in 9.0 mi SW 13.8 mph - N/A   Clear
5:53 PM 82.0 °F 82.1 °F 59.0 °F 45% 29.91 in 10.0 mi SSW 9.2 mph - N/A   Clear
6:53 PM 73.9 °F - 60.1 °F 62% 29.92 in 8.0 mi SSW 3.5 mph - N/A   Clear
7:10 PM 71.6 °F - 60.8 °F 69% 29.93 in 2.0 mi South 3.5 mph - N/A   Haze
7:19 PM 71.6 °F - 60.8 °F 69% 29.93 in 5.0 mi South 3.5 mph - N/A   Haze
7:53 PM 68.0 °F - 61.0 °F 78% 29.93 in 8.0 mi South 3.5 mph - N/A   Clear
8:53 PM 69.1 °F - 61.0 °F 75% 29.95 in 10.0 mi SW 3.5 mph - N/A   Clear
9:53 PM 68.0 °F - 60.1 °F 76% 29.95 in 7.0 mi South 3.5 mph - N/A   Clear
10:53 PM 64.9 °F - 60.1 °F 84% 29.96 in 10.0 mi South 4.6 mph - N/A   Clear
11:53 PM 64.0 °F - 59.0 °F 84% 29.97 in 10.0 mi South 4.6 mph - N/A   Clear